Time,TemperatureF,DewpointF,PressureIn,WindDirection,WindDirectionDegrees,WindSpeedMPH,WindSpeedGustMPH,Humidity,HourlyPrecipIn,Conditions,Clouds,dailyrainin,SoftwareType,DateUTC
2013-01-04 00:00:00,22.6,17.1,30.05,NW,310,0.0,0.0,79,0.00,,,0.00,meteohub,2013-01-04 05:00:00,
2013-01-04 00:03:00,22.5,16.9,30.05,NW,310,0.0,0.0,79,0.00,,,0.00,meteohub,2013-01-04 05:03:00,
2013-01-04 00:04:00,22.5,16.9,30.05,NW,310,0.0,0.0,79,0.00,,,0.00,meteohub,2013-01-04 05:04:00,
2013-01-04 00:09:00,22.3,16.7,30.05,NW,310,0.0,0.0,79,0.00,,,0.00,meteohub,2013-01-04 05:09:00,
2013-01-04 00:14:00,22.1,16.5,30.04,NW,310,0.0,0.0,79,0.00,,,0.00,meteohub,2013-01-04 05:14:00,
2013-01-04 00:19:00,21.9,16.3,30.05,NW,310,0.0,0.0,79,0.00,,,0.00,meteohub,2013-01-04 05:19:00,
2013-01-04 00:24:00,21.7,16.0,30.04,NW,310,0.0,0.0,78,0.00,,,0.00,meteohub,2013-01-04 05:24:00,
2013-01-04 00:29:00,21.6,16.0,30.04,NW,310,0.0,0.0,79,0.00,,,0.00,meteohub,2013-01-04 05:29:00,
2013-01-04 00:35:00,21.2,15.8,30.04,NW,310,0.0,0.0,79,0.00,,,0.00,meteohub,2013-01-04 05:35:00,
2013-01-04 00:40:00,21.0,15.8,30.04,NW,310,0.0,0.0,80,0.00,,,0.00,meteohub,2013-01-04 05:40:00,
2013-01-04 00:45:00,21.0,16.2,30.04,NW,310,0.0,0.0,81,0.00,,,0.00,meteohub,2013-01-04 05:45:00,
2013-01-04 00:50:00,20.8,16.0,30.04,NW,310,0.0,0.0,81,0.00,,,0.00,meteohub,2013-01-04 05:50:00,
2013-01-04 00:55:00,20.8,16.0,30.03,NW,310,0.0,0.0,81,0.00,,,0.00,meteohub,2013-01-04 05:55:00,
2013-01-04 01:01:00,20.7,15.8,30.04,NW,310,0.0,0.0,81,0.00,,,0.00,meteohub,2013-01-04 06:01:00,
2013-01-04 01:06:00,20.7,15.8,30.03,NW,310,0.0,0.0,81,0.00,,,0.00,meteohub,2013-01-04 06:06:00,
2013-01-04 01:11:00,20.5,15.6,30.03,NW,310,0.0,0.0,81,0.00,,,0.00,meteohub,2013-01-04 06:11:00,
2013-01-04 01:16:00,20.3,15.4,30.03,NW,310,0.0,0.0,81,0.00,,,0.00,meteohub,2013-01-04 06:16:00,
2013-01-04 01:21:00,20.3,15.6,30.03,NW,310,0.0,0.0,82,0.00,,,0.00,meteohub,2013-01-04 06:21:00,
2013-01-04 01:27:00,20.1,15.4,30.03,NW,310,0.0,0.0,82,0.00,,,0.00,meteohub,2013-01-04 06:27:00,
2013-01-04 01:32:00,19.9,15.3,30.03,NW,310,0.0,0.0,82,0.00,,,0.00,meteohub,2013-01-04 06:32:00,
2013-01-04 01:37:00,19.9,15.3,30.03,NW,310,0.0,0.0,82,0.00,,,0.00,meteohub,2013-01-04 06:37:00,
2013-01-04 01:42:00,19.8,15.1,30.03,NW,310,0.0,0.0,82,0.00,,,0.00,meteohub,2013-01-04 06:42:00,
2013-01-04 01:47:00,19.4,14.7,30.03,NW,310,0.0,0.0,82,0.00,,,0.00,meteohub,2013-01-04 06:47:00,
2013-01-04 01:52:00,19.0,14.5,30.03,NW,310,0.0,0.0,82,0.00,,,0.00,meteohub,2013-01-04 06:52:00,
2013-01-04 01:57:00,18.9,14.4,30.04,NW,310,0.0,0.0,82,0.00,,,0.00,meteohub,2013-01-04 06:57:00,
2013-01-04 02:02:00,18.5,14.2,30.04,NW,310,0.0,0.0,83,0.00,,,0.00,meteohub,2013-01-04 07:02:00,
2013-01-04 02:07:00,18.3,14.0,30.04,NW,310,0.0,0.0,83,0.00,,,0.00,meteohub,2013-01-04 07:07:00,
2013-01-04 02:12:00,18.1,14.2,30.04,NW,310,0.0,0.0,84,0.00,,,0.00,meteohub,2013-01-04 07:12:00,
2013-01-04 02:17:00,18.0,14.2,30.04,NW,310,0.0,0.0,85,0.00,,,0.00,meteohub,2013-01-04 07:17:00,
2013-01-04 02:22:00,17.8,14.0,30.04,NW,310,0.0,0.0,85,0.00,,,0.00,meteohub,2013-01-04 07:22:00,
2013-01-04 02:27:00,17.6,13.6,30.04,NW,310,0.0,0.0,84,0.00,,,0.00,meteohub,2013-01-04 07:27:00,
2013-01-04 02:32:00,17.4,13.5,30.04,NW,310,0.0,0.0,84,0.00,,,0.00,meteohub,2013-01-04 07:32:00,
2013-01-04 02:37:00,17.2,13.3,30.04,NW,310,0.0,0.0,84,0.00,,,0.00,meteohub,2013-01-04 07:37:00,
2013-01-04 02:42:00,17.1,13.6,30.04,NW,310,0.0,0.0,86,0.00,,,0.00,meteohub,2013-01-04 07:42:00,
2013-01-04 02:47:00,17.1,13.3,30.04,NW,310,0.0,0.0,85,0.00,,,0.00,meteohub,2013-01-04 07:47:00,
2013-01-04 02:52:00,17.1,13.6,30.04,NW,310,0.0,0.0,86,0.00,,,0.00,meteohub,2013-01-04 07:52:00,
2013-01-04 02:57:00,17.1,13.8,30.04,NW,310,0.0,0.0,87,0.00,,,0.00,meteohub,2013-01-04 07:57:00,
2013-01-04 03:02:00,17.1,13.8,30.04,NW,310,0.0,0.0,87,0.00,,,0.00,meteohub,2013-01-04 08:02:00,
2013-01-04 03:07:00,17.2,14.4,30.03,NW,310,0.0,0.0,88,0.00,,,0.00,meteohub,2013-01-04 08:07:00,
2013-01-04 03:12:00,17.6,14.4,30.03,NW,310,0.0,0.0,87,0.00,,,0.00,meteohub,2013-01-04 08:12:00,
2013-01-04 03:17:00,17.8,14.5,30.03,NW,310,0.0,0.0,87,0.00,,,0.00,meteohub,2013-01-04 08:17:00,
2013-01-04 03:22:00,18.1,15.3,30.03,NW,310,0.0,0.0,88,0.00,,,0.00,meteohub,2013-01-04 08:22:00,
2013-01-04 03:27:00,18.5,15.3,30.03,NW,310,0.0,0.0,87,0.00,,,0.00,meteohub,2013-01-04 08:27:00,
2013-01-04 03:32:00,18.7,15.4,30.03,NW,310,0.0,0.0,87,0.00,,,0.00,meteohub,2013-01-04 08:32:00,
2013-01-04 03:37:00,19.0,15.8,30.03,NW,310,0.0,0.0,87,0.00,,,0.00,meteohub,2013-01-04 08:37:00,
2013-01-04 03:42:00,19.4,16.2,30.03,NW,310,0.0,0.0,87,0.00,,,0.00,meteohub,2013-01-04 08:42:00,
2013-01-04 03:47:00,19.8,16.5,30.02,NW,310,0.0,0.0,87,0.00,,,0.00,meteohub,2013-01-04 08:47:00,
2013-01-04 03:52:00,19.9,16.2,30.03,NW,310,0.0,0.0,85,0.00,,,0.00,meteohub,2013-01-04 08:52:00,
2013-01-04 03:57:00,20.1,16.7,30.02,NW,310,0.0,0.0,86,0.00,,,0.00,meteohub,2013-01-04 08:57:00,
2013-01-04 04:02:00,20.3,16.5,30.02,NW,310,0.0,0.0,85,0.00,,,0.00,meteohub,2013-01-04 09:02:00,
2013-01-04 04:07:00,20.5,16.7,30.02,NW,310,0.0,0.0,85,0.00,,,0.00,meteohub,2013-01-04 09:07:00,
2013-01-04 04:12:00,20.8,17.2,30.02,NW,310,0.0,0.0,86,0.00,,,0.00,meteohub,2013-01-04 09:12:00,
2013-01-04 04:17:00,21.2,17.4,30.02,NW,310,0.0,0.0,85,0.00,,,0.00,meteohub,2013-01-04 09:17:00,
2013-01-04 04:22:00,21.6,17.4,30.02,NW,310,0.0,0.0,84,0.00,,,0.00,meteohub,2013-01-04 09:22:00,
2013-01-04 04:27:00,21.7,18.0,30.02,NW,310,0.0,0.0,85,0.00,,,0.00,meteohub,2013-01-04 09:27:00,
2013-01-04 04:32:00,21.9,18.1,30.02,NW,310,0.0,0.0,85,0.00,,,0.00,meteohub,2013-01-04 09:32:00,
2013-01-04 04:37:00,22.3,18.1,30.02,NW,310,0.0,0.0,84,0.00,,,0.00,meteohub,2013-01-04 09:37:00,
2013-01-04 04:42:00,22.5,18.3,30.02,NW,310,0.0,0.0,84,0.00,,,0.00,meteohub,2013-01-04 09:42:00,
2013-01-04 04:47:00,23.2,19.0,30.02,NW,310,0.0,0.0,84,0.00,,,0.00,meteohub,2013-01-04 09:47:00,
2013-01-04 04:52:00,23.5,19.2,30.02,NW,310,0.0,0.0,83,0.00,,,0.00,meteohub,2013-01-04 09:52:00,
2013-01-04 04:57:00,23.9,19.2,30.02,NW,310,0.0,0.0,82,0.00,,,0.00,meteohub,2013-01-04 09:57:00,
2013-01-04 05:02:00,24.1,19.4,30.02,NW,310,0.0,0.0,82,0.00,,,0.00,meteohub,2013-01-04 10:02:00,
2013-01-04 05:07:00,24.3,19.6,30.02,NW,310,0.0,0.0,82,0.00,,,0.00,meteohub,2013-01-04 10:07:00,
2013-01-04 05:12:00,24.3,19.6,30.03,NW,310,0.0,0.0,82,0.00,,,0.00,meteohub,2013-01-04 10:12:00,
2013-01-04 05:17:00,24.6,19.9,30.02,NW,310,0.0,0.0,82,0.00,,,0.00,meteohub,2013-01-04 10:17:00,
2013-01-04 05:22:00,25.0,19.9,30.03,NW,310,0.0,0.0,81,0.00,,,0.00,meteohub,2013-01-04 10:22:00,
2013-01-04 05:27:00,25.2,20.1,30.03,NW,310,0.0,0.0,81,0.00,,,0.00,meteohub,2013-01-04 10:27:00,
2013-01-04 05:32:00,25.3,20.3,30.03,NW,310,0.0,0.0,81,0.00,,,0.00,meteohub,2013-01-04 10:32:00,
2013-01-04 05:37:00,25.2,20.1,30.03,NW,310,0.0,0.0,81,0.00,,,0.00,meteohub,2013-01-04 10:37:00,
2013-01-04 05:42:00,25.5,20.5,30.03,NW,310,0.0,0.0,81,0.00,,,0.00,meteohub,2013-01-04 10:42:00,
2013-01-04 05:47:00,25.9,20.8,30.03,NW,310,0.0,0.0,81,0.00,,,0.00,meteohub,2013-01-04 10:47:00,
2013-01-04 05:52:00,26.1,20.7,30.03,NW,310,0.0,0.0,80,0.00,,,0.00,meteohub,2013-01-04 10:52:00,
2013-01-04 05:57:00,26.1,20.7,30.03,NW,310,0.0,0.0,80,0.00,,,0.00,meteohub,2013-01-04 10:57:00,
2013-01-04 06:02:00,26.1,20.7,30.04,NW,310,0.0,0.0,80,0.00,,,0.00,meteohub,2013-01-04 11:02:00,
2013-01-04 06:07:00,26.1,20.7,30.04,NW,310,0.0,0.0,80,0.00,,,0.00,meteohub,2013-01-04 11:07:00,
2013-01-04 06:12:00,26.1,20.7,30.04,NW,310,0.0,0.0,80,0.00,,,0.00,meteohub,2013-01-04 11:12:00,
2013-01-04 06:17:00,25.9,20.5,30.04,NW,310,0.0,0.0,80,0.00,,,0.00,meteohub,2013-01-04 11:17:00,
2013-01-04 06:22:00,25.7,20.1,30.04,NW,310,0.0,0.0,79,0.00,,,0.00,meteohub,2013-01-04 11:22:00,
2013-01-04 06:27:00,25.5,20.5,30.04,NW,310,0.0,0.0,81,0.00,,,0.00,meteohub,2013-01-04 11:27:00,
2013-01-04 06:32:00,25.3,20.1,30.04,NW,310,0.0,0.0,80,0.00,,,0.00,meteohub,2013-01-04 11:32:00,
2013-01-04 06:37:00,25.2,19.9,30.04,NW,310,0.0,0.0,80,0.00,,,0.00,meteohub,2013-01-04 11:37:00,
2013-01-04 06:42:00,25.0,19.9,30.04,NW,310,0.0,0.0,81,0.00,,,0.00,meteohub,2013-01-04 11:42:00,
2013-01-04 06:47:00,24.6,19.6,30.04,NW,310,0.0,0.0,81,0.00,,,0.00,meteohub,2013-01-04 11:47:00,
2013-01-04 06:52:00,24.4,19.8,30.04,NW,310,0.0,0.0,82,0.00,,,0.00,meteohub,2013-01-04 11:52:00,
2013-01-04 06:57:00,24.4,19.8,30.04,NW,310,0.0,0.0,82,0.00,,,0.00,meteohub,2013-01-04 11:57:00,
2013-01-04 07:02:00,24.3,19.6,30.04,North,-999,-999.0,0.0,82,0.00,,,0.00,meteohub,2013-01-04 12:02:00,
2013-01-04 07:07:00,24.1,19.8,30.04,NW,310,0.0,0.0,83,0.00,,,0.00,meteohub,2013-01-04 12:07:00,
2013-01-04 07:12:00,24.3,20.1,30.04,NW,310,0.0,0.0,84,0.00,,,0.00,meteohub,2013-01-04 12:12:00,
2013-01-04 07:17:00,24.3,19.8,30.04,NW,310,0.0,0.0,83,0.00,,,0.00,meteohub,2013-01-04 12:17:00,
2013-01-04 07:22:00,24.4,20.3,30.05,NW,310,0.0,0.0,84,0.00,,,0.00,meteohub,2013-01-04 12:22:00,
2013-01-04 07:27:00,24.4,19.9,30.05,NW,310,0.0,0.0,83,0.00,,,0.00,meteohub,2013-01-04 12:27:00,
2013-01-04 07:33:00,24.3,19.8,30.05,NW,310,0.0,0.0,83,0.00,,,0.00,meteohub,2013-01-04 12:33:00,
2013-01-04 07:38:00,24.3,20.1,30.05,NW,310,0.0,0.0,84,0.00,,,0.00,meteohub,2013-01-04 12:38:00,
2013-01-04 07:43:00,24.3,20.1,30.05,NW,310,0.0,0.0,84,0.00,,,0.00,meteohub,2013-01-04 12:43:00,
2013-01-04 07:48:00,24.6,20.5,30.05,NW,310,0.0,0.0,84,0.00,,,0.00,meteohub,2013-01-04 12:48:00,
2013-01-04 07:53:00,25.0,20.5,30.05,NW,310,0.0,0.0,83,0.00,,,0.00,meteohub,2013-01-04 12:53:00,
2013-01-04 07:58:00,25.0,20.5,30.05,NW,310,0.0,0.0,83,0.00,,,0.00,meteohub,2013-01-04 12:58:00,
2013-01-04 08:04:00,25.2,21.0,30.05,NW,310,0.0,0.0,84,0.00,,,0.00,meteohub,2013-01-04 13:04:00,
2013-01-04 08:09:00,25.5,21.4,30.05,NW,310,0.0,0.0,84,0.00,,,0.00,meteohub,2013-01-04 13:09:00,
2013-01-04 08:14:00,26.1,21.6,30.05,NW,310,0.0,0.0,83,0.00,,,0.00,meteohub,2013-01-04 13:14:00,
2013-01-04 08:19:00,26.6,22.1,30.05,NW,310,0.0,0.0,83,0.00,,,0.00,meteohub,2013-01-04 13:19:00,
2013-01-04 08:24:00,27.0,22.3,30.05,NW,310,0.0,0.0,82,0.00,,,0.00,meteohub,2013-01-04 13:24:00,
2013-01-04 08:30:00,27.3,22.6,30.05,NW,310,0.0,0.0,82,0.00,,,0.00,meteohub,2013-01-04 13:30:00,
2013-01-04 08:35:00,27.9,22.8,30.05,NW,310,0.0,0.0,81,0.00,,,0.00,meteohub,2013-01-04 13:35:00,
2013-01-04 08:40:00,28.0,23.0,30.05,NW,310,0.0,0.0,81,0.00,,,0.00,meteohub,2013-01-04 13:40:00,
2013-01-04 08:45:00,28.8,23.7,30.05,NW,310,0.0,0.0,81,0.00,,,0.00,meteohub,2013-01-04 13:45:00,
2013-01-04 08:50:00,29.1,24.1,30.06,NW,310,0.0,0.0,81,0.00,,,0.00,meteohub,2013-01-04 13:50:00,
2013-01-04 08:55:00,29.8,24.4,30.06,NW,310,0.0,0.0,80,0.00,,,0.00,meteohub,2013-01-04 13:55:00,
2013-01-04 09:01:00,30.7,25.0,30.06,NW,310,0.0,0.0,79,0.00,,,0.00,meteohub,2013-01-04 14:01:00,
2013-01-04 09:06:00,31.3,25.5,30.06,NW,310,0.0,0.0,79,0.00,,,0.00,meteohub,2013-01-04 14:06:00,
2013-01-04 09:11:00,31.5,25.7,30.06,NW,310,0.0,0.0,79,0.00,,,0.00,meteohub,2013-01-04 14:11:00,
2013-01-04 09:16:00,31.5,25.3,30.06,NW,310,0.0,0.0,78,0.00,,,0.00,meteohub,2013-01-04 14:16:00,
2013-01-04 09:21:00,31.5,25.3,30.06,NW,310,0.0,0.0,78,0.00,,,0.00,meteohub,2013-01-04 14:21:00,
2013-01-04 09:27:00,31.5,25.3,30.06,NW,310,0.0,0.0,78,0.00,,,0.00,meteohub,2013-01-04 14:27:00,
2013-01-04 09:32:00,31.5,25.3,30.06,NW,310,0.0,0.0,78,0.00,,,0.00,meteohub,2013-01-04 14:32:00,
2013-01-04 09:37:00,31.6,25.5,30.06,NW,310,0.0,0.0,78,0.00,,,0.00,meteohub,2013-01-04 14:37:00,
2013-01-04 09:42:00,31.8,25.5,30.06,NW,310,0.0,0.0,77,0.00,,,0.00,meteohub,2013-01-04 14:42:00,
2013-01-04 09:47:00,31.8,25.7,30.06,NW,310,0.0,0.0,78,0.00,,,0.00,meteohub,2013-01-04 14:47:00,
2013-01-04 09:52:00,32.0,25.7,30.06,NW,310,0.0,0.0,77,0.00,,,0.00,meteohub,2013-01-04 14:52:00,
2013-01-04 09:57:00,32.4,26.2,30.05,NW,310,0.0,0.0,78,0.00,,,0.00,meteohub,2013-01-04 14:57:00,
2013-01-04 10:02:00,32.5,26.1,30.05,North,-999,-999.0,0.0,77,0.00,,,0.00,meteohub,2013-01-04 15:02:00,
2013-01-04 10:07:00,32.7,26.2,30.04,NW,310,0.0,0.0,77,0.00,,,0.00,meteohub,2013-01-04 15:07:00,
2013-01-04 10:12:00,33.1,26.6,30.05,NW,310,0.0,0.0,77,0.00,,,0.00,meteohub,2013-01-04 15:12:00,
2013-01-04 10:17:00,33.3,26.8,30.04,NW,310,0.0,0.0,77,0.00,,,0.00,meteohub,2013-01-04 15:17:00,
2013-01-04 10:22:00,33.3,26.6,30.04,NW,310,0.0,0.0,76,0.00,,,0.00,meteohub,2013-01-04 15:22:00,
2013-01-04 10:27:00,33.4,27.0,30.04,NW,310,0.0,0.0,77,0.00,,,0.00,meteohub,2013-01-04 15:27:00,
2013-01-04 10:32:00,33.4,26.8,30.04,NW,310,0.0,0.0,76,0.00,,,0.00,meteohub,2013-01-04 15:32:00,
2013-01-04 10:37:00,33.6,26.8,30.04,NW,310,0.0,0.0,76,0.00,,,0.00,meteohub,2013-01-04 15:37:00,
2013-01-04 10:42:00,33.6,27.1,30.04,NW,310,0.0,0.0,77,0.00,,,0.00,meteohub,2013-01-04 15:42:00,
2013-01-04 10:47:00,33.8,26.8,30.03,NW,310,0.0,0.0,75,0.00,,,0.00,meteohub,2013-01-04 15:47:00,
2013-01-04 10:52:00,34.0,27.0,30.03,NW,310,0.0,0.0,75,0.00,,,0.00,meteohub,2013-01-04 15:52:00,
2013-01-04 10:57:00,34.0,27.0,30.03,NW,310,0.0,0.0,75,0.00,,,0.00,meteohub,2013-01-04 15:57:00,
2013-01-04 11:02:00,34.2,26.8,30.02,NW,310,0.0,0.0,74,0.00,,,0.00,meteohub,2013-01-04 16:02:00,
2013-01-04 11:07:00,34.3,27.0,30.02,NW,310,0.0,0.0,74,0.00,,,0.00,meteohub,2013-01-04 16:07:00,
2013-01-04 11:12:00,34.3,27.0,30.01,NW,310,0.0,0.0,74,0.00,,,0.00,meteohub,2013-01-04 16:12:00,
2013-01-04 11:17:00,34.5,26.8,30.01,NW,310,0.0,0.0,73,0.00,,,0.00,meteohub,2013-01-04 16:17:00,
2013-01-04 11:22:00,34.5,27.1,30.01,NW,310,0.0,0.0,74,0.00,,,0.00,meteohub,2013-01-04 16:22:00,
2013-01-04 11:27:00,34.7,27.0,30.01,NW,310,0.0,0.0,73,0.00,,,0.00,meteohub,2013-01-04 16:27:00,
2013-01-04 11:32:00,34.9,27.1,30.00,NW,310,0.0,0.0,73,0.00,,,0.00,meteohub,2013-01-04 16:32:00,
2013-01-04 11:37:00,35.1,27.0,30.00,NW,310,0.0,0.0,72,0.00,,,0.00,meteohub,2013-01-04 16:37:00,
2013-01-04 11:42:00,35.1,26.6,30.00,NW,310,0.0,0.0,71,0.00,,,0.00,meteohub,2013-01-04 16:42:00,
2013-01-04 11:47:00,35.1,27.3,29.99,NW,310,0.0,0.0,73,0.00,,,0.00,meteohub,2013-01-04 16:47:00,
2013-01-04 11:52:00,35.1,26.6,29.99,NW,310,0.0,0.0,71,0.00,,,0.00,meteohub,2013-01-04 16:52:00,
2013-01-04 11:57:00,35.2,27.1,29.99,NW,310,0.0,0.0,72,0.00,,,0.00,meteohub,2013-01-04 16:57:00,
2013-01-04 12:02:00,35.2,26.8,29.98,NW,310,0.0,0.0,71,0.00,,,0.00,meteohub,2013-01-04 17:02:00,
2013-01-04 12:07:00,35.2,27.1,29.98,NW,310,0.0,0.0,72,0.00,,,0.00,meteohub,2013-01-04 17:07:00,
2013-01-04 12:12:00,35.2,26.8,29.98,NW,310,0.0,0.0,71,0.00,,,0.00,meteohub,2013-01-04 17:12:00,
2013-01-04 12:17:00,35.2,27.1,29.97,NW,310,0.0,0.0,72,0.00,,,0.00,meteohub,2013-01-04 17:17:00,
2013-01-04 12:22:00,35.1,26.6,29.97,NW,310,0.0,0.0,71,0.00,,,0.00,meteohub,2013-01-04 17:22:00,
2013-01-04 12:27:00,35.1,26.6,29.97,NW,310,0.0,0.0,71,0.00,,,0.00,meteohub,2013-01-04 17:27:00,
2013-01-04 12:32:00,35.2,26.1,29.96,NW,310,0.0,0.0,69,0.00,,,0.00,meteohub,2013-01-04 17:32:00,
2013-01-04 12:37:00,35.2,26.1,29.96,NW,310,0.0,0.0,69,0.00,,,0.00,meteohub,2013-01-04 17:37:00,
2013-01-04 12:42:00,35.1,26.6,29.96,NW,310,0.0,0.0,71,0.00,,,0.00,meteohub,2013-01-04 17:42:00,
2013-01-04 12:47:00,35.2,26.8,29.96,NW,310,0.0,0.0,71,0.00,,,0.00,meteohub,2013-01-04 17:47:00,
2013-01-04 12:52:00,35.2,26.4,29.95,NW,310,0.0,0.0,70,0.00,,,0.00,meteohub,2013-01-04 17:52:00,
2013-01-04 12:57:00,35.4,27.3,29.95,NW,310,0.0,0.0,72,0.00,,,0.00,meteohub,2013-01-04 17:57:00,
2013-01-04 13:02:00,35.4,26.2,29.95,NW,310,0.0,0.0,69,0.00,,,0.00,meteohub,2013-01-04 18:02:00,
2013-01-04 13:07:00,35.6,26.8,29.95,NW,310,0.0,0.0,70,0.00,,,0.00,meteohub,2013-01-04 18:07:00,
2013-01-04 13:12:00,35.8,26.6,29.94,NW,310,0.0,0.0,69,0.00,,,0.00,meteohub,2013-01-04 18:12:00,
2013-01-04 13:17:00,35.8,27.0,29.94,NW,310,0.0,0.0,70,0.00,,,0.00,meteohub,2013-01-04 18:17:00,
2013-01-04 13:22:00,35.8,27.0,29.94,NW,310,0.0,0.0,70,0.00,,,0.00,meteohub,2013-01-04 18:22:00,
2013-01-04 13:27:00,35.8,26.6,29.94,NW,310,0.0,0.0,69,0.00,,,0.00,meteohub,2013-01-04 18:27:00,
2013-01-04 13:32:00,36.0,26.4,29.93,NW,310,0.0,0.0,68,0.00,,,0.00,meteohub,2013-01-04 18:32:00,
2013-01-04 13:37:00,36.1,26.6,29.94,NW,310,0.0,0.0,68,0.00,,,0.00,meteohub,2013-01-04 18:37:00,
2013-01-04 13:42:00,36.3,27.1,29.94,NW,310,0.0,0.0,69,0.00,,,0.00,meteohub,2013-01-04 18:42:00,
2013-01-04 13:47:00,36.3,26.8,29.93,NW,310,0.0,0.0,68,0.00,,,0.00,meteohub,2013-01-04 18:47:00,
2013-01-04 13:52:00,36.3,26.8,29.93,NW,310,0.0,0.0,68,0.00,,,0.00,meteohub,2013-01-04 18:52:00,
2013-01-04 13:57:00,36.5,26.6,29.93,NW,310,0.0,0.0,67,0.00,,,0.00,meteohub,2013-01-04 18:57:00,
2013-01-04 14:02:00,36.5,27.0,29.93,NW,310,0.0,0.0,68,0.00,,,0.00,meteohub,2013-01-04 19:02:00,
2013-01-04 14:07:00,36.3,26.4,29.93,NW,310,0.0,0.0,67,0.00,,,0.00,meteohub,2013-01-04 19:07:00,
2013-01-04 14:12:00,36.1,26.2,29.93,NW,310,0.0,0.0,67,0.00,,,0.00,meteohub,2013-01-04 19:12:00,
2013-01-04 14:17:00,36.1,26.2,29.93,NW,310,0.0,0.0,67,0.00,,,0.00,meteohub,2013-01-04 19:17:00,
2013-01-04 14:22:00,36.0,26.1,29.92,NW,310,0.0,0.0,67,0.00,,,0.00,meteohub,2013-01-04 19:22:00,
2013-01-04 14:27:00,35.8,26.2,29.92,NW,310,0.0,0.0,68,0.00,,,0.00,meteohub,2013-01-04 19:27:00,
2013-01-04 14:32:00,35.8,26.6,29.92,NW,310,0.0,0.0,69,0.00,,,0.00,meteohub,2013-01-04 19:32:00,
2013-01-04 14:37:00,35.6,25.7,29.92,NW,310,0.0,0.0,67,0.00,,,0.00,meteohub,2013-01-04 19:37:00,
2013-01-04 14:42:00,35.4,25.9,29.92,NW,310,0.0,0.0,68,0.00,,,0.00,meteohub,2013-01-04 19:42:00,
2013-01-04 14:47:00,35.4,26.2,29.92,NW,310,0.0,0.0,69,0.00,,,0.00,meteohub,2013-01-04 19:47:00,
2013-01-04 14:52:00,35.4,26.2,29.93,NW,310,0.0,0.0,69,0.00,,,0.00,meteohub,2013-01-04 19:52:00,
2013-01-04 14:57:00,35.4,25.9,29.93,NW,310,0.0,0.0,68,0.00,,,0.00,meteohub,2013-01-04 19:57:00,
2013-01-04 15:02:00,35.4,25.9,29.93,NW,310,0.0,0.0,68,0.00,,,0.00,meteohub,2013-01-04 20:02:00,
2013-01-04 15:07:00,35.2,26.1,29.92,NW,310,0.0,0.0,69,0.00,,,0.00,meteohub,2013-01-04 20:07:00,
2013-01-04 15:12:00,35.2,25.7,29.92,NW,310,0.0,0.0,68,0.00,,,0.00,meteohub,2013-01-04 20:12:00,
2013-01-04 15:17:00,35.2,25.3,29.92,NW,310,0.0,0.0,67,0.00,,,0.00,meteohub,2013-01-04 20:17:00,
2013-01-04 15:22:00,35.2,26.1,29.92,NW,310,0.0,0.0,69,0.00,,,0.00,meteohub,2013-01-04 20:22:00,
2013-01-04 15:27:00,35.1,25.5,29.92,NW,310,0.0,0.0,68,0.00,,,0.00,meteohub,2013-01-04 20:27:00,
2013-01-04 15:32:00,35.1,25.9,29.92,NW,310,0.0,0.0,69,0.00,,,0.00,meteohub,2013-01-04 20:32:00,
2013-01-04 15:37:00,34.9,25.7,29.92,NW,310,0.0,0.0,69,0.00,,,0.00,meteohub,2013-01-04 20:37:00,
2013-01-04 15:42:00,34.7,25.5,29.92,NW,310,0.0,0.0,69,0.00,,,0.00,meteohub,2013-01-04 20:42:00,
2013-01-04 15:47:00,34.5,25.0,29.92,NW,310,0.0,0.0,68,0.00,,,0.00,meteohub,2013-01-04 20:47:00,
2013-01-04 15:52:00,34.3,25.2,29.92,NW,310,0.0,0.0,69,0.00,,,0.00,meteohub,2013-01-04 20:52:00,
2013-01-04 15:57:00,34.3,25.5,29.92,NW,310,0.0,0.0,70,0.00,,,0.00,meteohub,2013-01-04 20:57:00,
2013-01-04 16:02:00,34.2,25.0,29.92,NW,310,0.0,0.0,69,0.00,,,0.00,meteohub,2013-01-04 21:02:00,
2013-01-04 16:07:00,34.2,25.0,29.92,NW,310,0.0,0.0,69,0.00,,,0.00,meteohub,2013-01-04 21:07:00,
2013-01-04 16:12:00,34.2,24.6,29.92,NW,310,0.0,0.0,68,0.00,,,0.00,meteohub,2013-01-04 21:12:00,
2013-01-04 16:17:00,34.0,24.8,29.91,NW,310,0.0,0.0,69,0.00,,,0.00,meteohub,2013-01-04 21:17:00,
2013-01-04 16:22:00,33.8,24.8,29.91,NW,310,0.0,0.0,69,0.00,,,0.00,meteohub,2013-01-04 21:22:00,
2013-01-04 16:27:00,33.6,24.8,29.91,NW,310,0.0,0.0,70,0.00,,,0.00,meteohub,2013-01-04 21:27:00,
2013-01-04 16:32:00,33.4,24.8,29.91,NW,310,0.0,0.0,70,0.00,,,0.00,meteohub,2013-01-04 21:32:00,
2013-01-04 16:37:00,33.3,24.6,29.91,NW,310,0.0,0.0,70,0.00,,,0.00,meteohub,2013-01-04 21:37:00,
2013-01-04 16:42:00,33.1,24.6,29.91,NW,310,0.0,0.0,71,0.00,,,0.00,meteohub,2013-01-04 21:42:00,
2013-01-04 16:47:00,33.1,24.4,29.91,NW,310,0.0,0.0,70,0.00,,,0.00,meteohub,2013-01-04 21:47:00,
2013-01-04 16:52:00,32.7,24.1,29.91,NW,310,0.0,0.0,70,0.00,,,0.00,meteohub,2013-01-04 21:52:00,
2013-01-04 16:57:00,32.7,24.6,29.91,NW,310,0.0,0.0,72,0.00,,,0.00,meteohub,2013-01-04 21:57:00,
2013-01-04 17:02:00,32.5,24.8,29.91,NW,310,0.0,0.0,73,0.00,,,0.00,meteohub,2013-01-04 22:02:00,
2013-01-04 17:07:00,32.5,24.4,29.91,NW,310,0.0,0.0,72,0.00,,,0.00,meteohub,2013-01-04 22:07:00,
2013-01-04 17:12:00,32.5,24.4,29.91,NW,310,0.0,0.0,72,0.00,,,0.00,meteohub,2013-01-04 22:12:00,
2013-01-04 17:17:00,32.5,24.8,29.91,NW,310,0.0,0.0,73,0.00,,,0.00,meteohub,2013-01-04 22:17:00,
2013-01-04 17:22:00,32.7,24.6,29.92,NW,310,0.0,0.0,72,0.00,,,0.00,meteohub,2013-01-04 22:22:00,
2013-01-04 17:27:00,32.7,24.6,29.92,NW,310,0.0,0.0,72,0.00,,,0.00,meteohub,2013-01-04 22:27:00,
2013-01-04 17:32:00,32.7,24.6,29.92,NW,310,0.0,0.0,72,0.00,,,0.00,meteohub,2013-01-04 22:32:00,
2013-01-04 17:37:00,32.9,24.8,29.92,NW,310,0.0,0.0,72,0.00,,,0.00,meteohub,2013-01-04 22:37:00,
2013-01-04 17:42:00,33.1,25.0,29.92,NW,310,0.0,0.0,72,0.00,,,0.00,meteohub,2013-01-04 22:42:00,
2013-01-04 17:47:00,33.3,24.8,29.92,NW,310,0.0,0.0,71,0.00,,,0.00,meteohub,2013-01-04 22:47:00,
2013-01-04 17:52:00,33.1,24.6,29.92,NW,310,0.0,0.0,71,0.00,,,0.00,meteohub,2013-01-04 22:52:00,
2013-01-04 17:57:00,33.1,24.6,29.92,NW,310,0.0,0.0,71,0.00,,,0.00,meteohub,2013-01-04 22:57:00,
2013-01-04 18:03:00,32.7,24.6,29.92,NW,310,0.0,0.0,72,0.00,,,0.00,meteohub,2013-01-04 23:03:00,
2013-01-04 18:08:00,32.5,24.3,29.92,NW,310,0.0,0.0,71,0.00,,,0.00,meteohub,2013-01-04 23:08:00,
2013-01-04 18:13:00,32.4,24.3,29.92,NW,310,0.0,0.0,72,0.00,,,0.00,meteohub,2013-01-04 23:13:00,
2013-01-04 18:18:00,32.4,24.1,29.92,NW,310,0.0,0.0,71,0.00,,,0.00,meteohub,2013-01-04 23:18:00,
2013-01-04 18:23:00,32.4,24.3,29.93,NW,310,0.0,0.0,72,0.00,,,0.00,meteohub,2013-01-04 23:23:00,
2013-01-04 18:28:00,32.5,24.3,29.92,NW,310,0.0,0.0,71,0.00,,,0.00,meteohub,2013-01-04 23:28:00,
2013-01-04 18:34:00,32.5,24.3,29.93,NW,310,0.0,0.0,71,0.00,,,0.00,meteohub,2013-01-04 23:34:00,
2013-01-04 18:39:00,32.7,24.1,29.93,NW,310,0.0,0.0,70,0.00,,,0.00,meteohub,2013-01-04 23:39:00,
2013-01-04 18:44:00,32.7,24.1,29.93,NW,310,0.0,0.0,70,0.00,,,0.00,meteohub,2013-01-04 23:44:00,
2013-01-04 18:49:00,32.7,24.4,29.93,NW,310,0.0,0.0,71,0.00,,,0.00,meteohub,2013-01-04 23:49:00,
2013-01-04 18:54:00,32.5,24.3,29.93,NW,310,0.0,0.0,71,0.00,,,0.00,meteohub,2013-01-04 23:54:00,
2013-01-04 18:59:00,32.5,24.3,29.93,NW,310,0.0,0.0,71,0.00,,,0.00,meteohub,2013-01-04 23:59:00,
2013-01-04 19:04:00,32.5,24.3,29.93,NW,310,0.0,0.0,71,0.00,,,0.00,meteohub,2013-01-05 00:04:00,
2013-01-04 19:09:00,32.5,24.3,29.94,NW,310,0.0,0.0,71,0.00,,,0.00,meteohub,2013-01-05 00:09:00,
2013-01-04 19:14:00,32.4,24.3,29.94,NW,310,0.0,0.0,72,0.00,,,0.00,meteohub,2013-01-05 00:14:00,
2013-01-04 19:20:00,32.4,24.6,29.94,NW,310,0.0,0.0,73,0.00,,,0.00,meteohub,2013-01-05 00:20:00,
2013-01-04 19:25:00,32.4,24.6,29.94,NW,310,0.0,0.0,73,0.00,,,0.00,meteohub,2013-01-05 00:25:00,
2013-01-04 19:30:00,32.5,24.4,29.94,NW,310,0.0,0.0,72,0.00,,,0.00,meteohub,2013-01-05 00:30:00,
2013-01-04 19:35:00,32.5,24.4,29.94,NW,310,0.0,0.0,72,0.00,,,0.00,meteohub,2013-01-05 00:35:00,
2013-01-04 19:40:00,32.5,24.4,29.94,NW,310,0.0,0.0,72,0.00,,,0.00,meteohub,2013-01-05 00:40:00,
2013-01-04 19:45:00,32.4,24.3,29.95,NW,310,0.0,0.0,72,0.00,,,0.00,meteohub,2013-01-05 00:45:00,
2013-01-04 19:50:00,32.2,24.3,29.95,NW,310,0.0,0.0,72,0.00,,,0.00,meteohub,2013-01-05 00:50:00,
2013-01-04 19:56:00,32.2,24.3,29.94,NW,310,0.0,0.0,72,0.00,,,0.00,meteohub,2013-01-05 00:56:00,
2013-01-04 20:01:00,32.2,24.3,29.94,NW,310,0.0,0.0,72,0.00,,,0.00,meteohub,2013-01-05 01:01:00,
2013-01-04 20:06:00,32.0,24.3,29.94,NW,310,0.0,0.0,73,0.00,,,0.00,meteohub,2013-01-05 01:06:00,
2013-01-04 20:11:00,31.8,24.1,29.94,NW,310,0.0,0.0,73,0.00,,,0.00,meteohub,2013-01-05 01:11:00,
2013-01-04 20:16:00,31.6,23.9,29.94,NW,310,0.0,0.0,73,0.00,,,0.00,meteohub,2013-01-05 01:16:00,
2013-01-04 20:21:00,31.6,23.9,29.94,NW,310,0.0,0.0,73,0.00,,,0.00,meteohub,2013-01-05 01:21:00,
2013-01-04 20:27:00,31.5,23.9,29.94,NW,310,0.0,0.0,73,0.00,,,0.00,meteohub,2013-01-05 01:27:00,
2013-01-04 20:32:00,31.5,23.9,29.94,NW,310,0.0,0.0,73,0.00,,,0.00,meteohub,2013-01-05 01:32:00,
2013-01-04 20:37:00,31.3,23.7,29.94,NW,310,0.0,0.0,73,0.00,,,0.00,meteohub,2013-01-05 01:37:00,
2013-01-04 20:42:00,31.3,23.9,29.94,NW,310,0.0,0.0,74,0.00,,,0.00,meteohub,2013-01-05 01:42:00,
2013-01-04 20:47:00,31.3,23.9,29.94,NW,310,0.0,0.0,74,0.00,,,0.00,meteohub,2013-01-05 01:47:00,
2013-01-04 20:52:00,31.1,23.5,29.94,NW,310,0.0,0.0,73,0.00,,,0.00,meteohub,2013-01-05 01:52:00,
2013-01-04 20:57:00,31.1,23.7,29.94,NW,310,0.0,0.0,74,0.00,,,0.00,meteohub,2013-01-05 01:57:00,
2013-01-04 21:02:00,30.9,23.5,29.94,NW,310,0.0,0.0,74,0.00,,,0.00,meteohub,2013-01-05 02:02:00,
2013-01-04 21:07:00,30.6,23.5,29.93,NW,310,0.0,0.0,75,0.00,,,0.00,meteohub,2013-01-05 02:07:00,
2013-01-04 21:12:00,30.4,23.4,29.94,NW,310,0.0,0.0,75,0.00,,,0.00,meteohub,2013-01-05 02:12:00,
2013-01-04 21:17:00,30.2,23.5,29.93,NW,310,0.0,0.0,76,0.00,,,0.00,meteohub,2013-01-05 02:17:00,
2013-01-04 21:22:00,29.8,23.2,29.93,NW,310,0.0,0.0,76,0.00,,,0.00,meteohub,2013-01-05 02:22:00,
2013-01-04 21:27:00,29.7,23.0,29.93,NW,310,0.0,0.0,76,0.00,,,0.00,meteohub,2013-01-05 02:27:00,
2013-01-04 21:32:00,29.5,23.2,29.93,NW,310,0.0,0.0,77,0.00,,,0.00,meteohub,2013-01-05 02:32:00,
2013-01-04 21:37:00,29.5,23.2,29.93,NW,310,0.0,0.0,77,0.00,,,0.00,meteohub,2013-01-05 02:37:00,
2013-01-04 21:42:00,29.5,23.2,29.93,NW,310,0.0,0.0,77,0.00,,,0.00,meteohub,2013-01-05 02:42:00,
2013-01-04 21:47:00,29.1,22.8,29.93,NW,310,0.0,0.0,77,0.00,,,0.00,meteohub,2013-01-05 02:47:00,
2013-01-04 21:52:00,28.9,23.0,29.93,NW,310,0.0,0.0,78,0.00,,,0.00,meteohub,2013-01-05 02:52:00,
2013-01-04 21:57:00,28.9,23.0,29.93,NW,310,0.0,0.0,78,0.00,,,0.00,meteohub,2013-01-05 02:57:00,
2013-01-04 22:02:00,28.8,22.8,29.93,NW,310,0.0,0.0,78,0.00,,,0.00,meteohub,2013-01-05 03:02:00,
2013-01-04 22:07:00,28.6,22.6,29.94,NW,310,0.0,0.0,78,0.00,,,0.00,meteohub,2013-01-05 03:07:00,
2013-01-04 22:12:00,28.4,22.5,29.94,NW,310,0.0,0.0,78,0.00,,,0.00,meteohub,2013-01-05 03:12:00,
2013-01-04 22:17:00,28.2,22.3,29.94,NW,310,0.0,0.0,78,0.00,,,0.00,meteohub,2013-01-05 03:17:00,
2013-01-04 22:22:00,28.2,22.3,29.94,NW,310,0.0,0.0,78,0.00,,,0.00,meteohub,2013-01-05 03:22:00,
2013-01-04 22:27:00,28.4,22.5,29.94,NW,310,0.0,0.0,78,0.00,,,0.00,meteohub,2013-01-05 03:27:00,
2013-01-04 22:32:00,28.4,22.1,29.94,NW,310,0.0,0.0,77,0.00,,,0.00,meteohub,2013-01-05 03:32:00,
2013-01-04 22:37:00,28.4,22.1,29.94,NW,310,0.0,0.0,77,0.00,,,0.00,meteohub,2013-01-05 03:37:00,
2013-01-04 22:42:00,28.2,22.3,29.94,NW,310,0.0,0.0,78,0.00,,,0.00,meteohub,2013-01-05 03:42:00,
2013-01-04 22:47:00,28.0,22.1,29.94,NW,310,0.0,0.0,78,0.00,,,0.00,meteohub,2013-01-05 03:47:00,
2013-01-04 22:52:00,28.0,22.1,29.94,NW,310,0.0,0.0,78,0.00,,,0.00,meteohub,2013-01-05 03:52:00,
2013-01-04 22:57:00,28.0,22.1,29.94,NW,310,0.0,0.0,78,0.00,,,0.00,meteohub,2013-01-05 03:57:00,
2013-01-04 23:02:00,28.0,21.7,29.95,NW,310,0.0,0.0,77,0.00,,,0.00,meteohub,2013-01-05 04:02:00,
2013-01-04 23:07:00,27.9,21.6,29.95,NW,310,0.0,0.0,77,0.00,,,0.00,meteohub,2013-01-05 04:07:00,
2013-01-04 23:12:00,28.0,21.7,29.95,NW,310,0.0,0.0,77,0.00,,,0.00,meteohub,2013-01-05 04:12:00,
2013-01-04 23:17:00,28.4,21.7,29.95,NW,310,0.0,0.0,76,0.00,,,0.00,meteohub,2013-01-05 04:17:00,
2013-01-04 23:22:00,28.6,21.9,29.95,NW,310,0.0,0.0,76,0.00,,,0.00,meteohub,2013-01-05 04:22:00,
2013-01-04 23:27:00,28.6,21.7,29.95,NW,310,0.0,0.0,75,0.00,,,0.00,meteohub,2013-01-05 04:27:00,
2013-01-04 23:32:00,28.6,21.7,29.94,NW,310,0.0,0.0,75,0.00,,,0.00,meteohub,2013-01-05 04:32:00,
2013-01-04 23:37:00,28.8,21.6,29.94,NW,310,0.0,0.0,74,0.00,,,0.00,meteohub,2013-01-05 04:37:00,
2013-01-04 23:42:00,28.9,21.7,29.95,NW,310,0.0,0.0,74,0.00,,,0.00,meteohub,2013-01-05 04:42:00,
2013-01-04 23:47:00,28.8,21.6,29.95,NW,310,0.0,0.0,74,0.00,,,0.00,meteohub,2013-01-05 04:47:00,
2013-01-04 23:52:00,28.9,21.4,29.95,NW,310,0.0,0.0,73,0.00,,,0.00,meteohub,2013-01-05 04:52:00,
2013-01-04 23:57:00,28.9,21.4,29.95,NW,310,0.0,0.0,73,0.00,,,0.00,meteohub,2013-01-05 04:57:00,